Regional Weather Roundup
Issued by NWS Upton, NY

Current Version | Previous Version | Text Only | Print | Product List | Glossary On
Versions: 1 2 3 4 5 6 7 8 9 10 11 12 13 14 15 16 17 18 19 20 21 22 23 24 25 26 27 28 29 30 31 32 33 34 35 36 37 38 39 40 41 42 43 44 45 46 47 48 49 50
000 ASUS41 KOKX 231208 RWROKX REGIONAL WEATHER ROUNDUP NATIONAL WEATHER SERVICE NEW YORK NY 700 AM EST THU FEB 23 2017 NOTE: "FAIR" INDICATES FEW OR NO CLOUDS BELOW 12,000 FEET WITH NO SIGNIFICANT WEATHER AND/OR OBSTRUCTIONS TO VISIBILITY. NYZ071-072-176-178-NJZ106-104-231300- NEW YORK CITY METRO AREA CITY SKY/WX TMP DP RH WIND PRES REMARKS Central Park CLEAR 44 40 85 CALM 29.91S Wall St Helipt NOT AVBL LaGuardia APRT PTCLDY 44 40 85 CALM 29.89S Kennedy INTL FOG 43 43 100 S5 29.91R VSB 1/8 Breezy Point N/A 41 N/A N/A SW5 N/A Newark/Liberty PTCLDY 44 42 93 S3 29.89S FOG Teterboro CLEAR 41 37 86 NW5 29.89R $$ NYZ177-179-078>081-231300- LONG ISLAND NEW YORK CITY SKY/WX TMP DP RH WIND PRES REMARKS Jones Beach N/A 41 N/A N/A SW5 N/A Matinecock PT NOT AVBL Farmingdale FOG 37 37 100 CALM 29.90S VSB 3/4 MacArthur/ISP FOG 39 39 100 CALM 29.90R VSB 1/8 Shirley FOG 35 35 100 CALM 29.91S VSB 1/4 Westhampton FOG 32 30 92 CALM 29.92S VSB 1/4 Southampton NOT AVBL Bridgehampton NOT AVBL East Hampton FOG 33 33 100 CALM 29.90S VSB 3/4 Montauk N/A 42 42 100 S6 29.91R $$ NYZ052-065-067-231300- HUDSON VALLEY CITY SKY/WX TMP DP RH WIND PRES REMARKS White Plains CLEAR 38 35 89 CALM 29.87S FOG Newburgh NOT AVBL Montgomery CLEAR 32 30 92 CALM 29.85R FOG Poughkeepsie CLEAR 32 31 96 CALM 29.86R Albany PTCLDY 43 36 76 CALM 29.83S $$ NJZ001-105-106-008-010-013-015-019>022-104-231300- NEW JERSEY CITY SKY/WX TMP DP RH WIND PRES REMARKS Newark/Liberty PTCLDY 44 42 93 S3 29.89S FOG Teterboro CLEAR 41 37 86 NW5 29.89R Caldwell CLEAR 35 33 92 CALM 29.90R FOG Somerville CLOUDY 32 30 92 MISG 29.88R Linden NOT AVBL Sussex CLEAR 31 30 96 CALM 29.87R FOG Andover N/A 31 30 96 CALM 29.88R Trenton FOG 45 45 100 CALM 29.89R VSB 1/4 Millville FOG 45 45 100 CALM 29.90S VSB 1/4 Atlantic City CLOUDY 46 45 96 E3 29.90F FOG Wrightstown CLOUDY 46 46 100 CALM 29.87S FOG Toms River FOG 43 43 100 CALM 29.91S VSB 1/4 Belmar LGT RAIN 45 45 100 S3 29.91R VSB<1/4 $$ PAZ047>061-062-071-231300- EASTERN PENNSYLVANIA CITY SKY/WX TMP DP RH WIND PRES REMARKS Philadelphia FOG 49 48 97 CALM 29.91R VSB 1/2 Allentown CLEAR 34 31 88 CALM 29.89R HAZE Scranton CLEAR 38 36 92 CALM 29.86R FOG $$ CTZ002-004>006-009-010-012-RIZ004-006-007-MAZ004-011-015-231300- SOUTHERN NEW ENGLAND IN CT CITY SKY/WX TMP DP RH WIND PRES REMARKS Bradley INTL PTCLDY 35 33 92 CALM 29.87S Hartford CLEAR 35 33 92 CALM 29.88S Danbury CLEAR 30 29 96 CALM 29.89R Wtrbury/Oxford CLEAR 39 37 93 CALM 29.88S FOG Bridgeport FOG 37 35 92 CALM 29.90R VSB<1/4 Meriden FOG 38 35 89 S5 29.89R VSB<1/4 WCI 34 New Haven FOG 36 36 100 CALM 29.90R VSB<1/4 Chester FOG 39 39 100 CALM 29.89R VSB 1/4 Groton FOG 36 35 96 CALM 29.90R VSB<1/4 Wilimantic CLEAR 33 31 92 CALM 29.90R IN RI CITY SKY/WX TMP DP RH WIND PRES REMARKS Providence PTCLDY 37 35 92 S3 29.89R Block Island NOT AVBL Westerly FOG 35 32 88 CALM 29.91R VSB<1/4 IN MA CITY SKY/WX TMP DP RH WIND PRES REMARKS Boston MOCLDY 39 38 96 S6 29.87S WCI 35 Worcester CLEAR 43 35 73 W10 29.85R Westfield CLEAR 31 30 96 CALM 29.87R Provincetown FOG 39 39 100 S8 29.89S VSB 1/4 WCI 33 Nantucket FOG 42 41 96 SW5 29.91S VSB<1/4 $$ ANZ330-335-338-340-345-350-353-355-231300- COASTAL MARINE OBSERVATIONS STATION/POSITION TIME SKY/WX TEMP WIND PRES VSBY WAVE AIR SEA DIR/SP/G HT/PER (UTC) (F) (DEG/KT/KT) (MB) (MI) (FT/S) NY HARB ENTRANCE 1050 43 42 200/ 10/ 12 1011.8 3/11 20 S FIRE ISLAND 1150 44 43 190/ 8/ 10 1012.4 3/11 GREAT SOUTH BAY NOT AVBL 23 SSW MONTAUK P 1050 45 45 1013.1 3/10 15 E BARNEGAT LI 1130 42 N/A 3/11 HUDSON CANYON 1050 49 1013.4 3/10 KINGS POINT 1136 39 38 1012.0 EXECUTION ROCKS NOT AVBL CENTRAL LI SOUND NOT AVBL EASTERN LI SOUND NOT AVBL ROBBINS REEF 1136 45 170/ 6/ 6 1012.4 $$ >>>>>>>>>>>>>>>>>>>>>>>>>>>> KEY <<<<<<<<<<<<<<<<<<<<<<<<<<< > < > SKY/WX - Sky Condition/Present Weather < > TMP - Temperature in Fahrenheit < > DP - Dew Point in Fahrenheit < > RH - Relative Humidity in Percent < > WIND - Direction (from) and Speed in MPH < > PRES - Mean Sea Level Pressure (inches of Hg) < > WCI - Wind Chill Index < > VSB - VISIBILITY IN MILES < > HX - HEAT INDEX < > TC - TEMPERATURE IN CELSIUS < > VRB - VARIABLE WIND DIRECTION < > < >>>>>>>>>>>>>>>>>>>>>>>>>>>> KEY <<<<<<<<<<<<<<<<<<<<<<<<<<<

USA.gov is the U.S. government's official web portal to all federal, state and local government web resources and services.